Regional Weather Roundup
Issued by NWS

Home | Current Version | Previous Version | Graphics & Text | Print | Product List | Glossary On
Versions: 1 2 3 4 5 6 7 8 9 10 11 12 13 14 15 16 17 18 19 20 21 22 23 24 25 26 27 28 29 30 31 32 33 34 35 36 37 38 39 40 41 42 43 44 45 46 47 48 49 50
000
ASUS45 KBOU 222007
RWRCO

WEATHER ROUNDUP FOR COLORADO
NATIONAL WEATHER SERVICE DENVER/BOULDER CO
100 PM MST WED FEB 22 2017

NOTE: "FAIR" INDICATES FEW OR NO CLOUDS BELOW 12000 FEET WITH NO
SIGNIFICANT WEATHER AND/OR OBSTRUCTIONS TO VISIBILITY.

COZ001>005-013-030-031-222100-
...NORTHWEST COLORADO...

CITY           SKY/WX    TMP DP  RH WIND       PRES   REMARKS
CRAIG          LGT SNOW  35  30  82 E3        29.89F VSB 1
HAYDEN         FAIR      36  27  69 SW5       29.88F
MEEKER         PTSUNNY   45  30  55 W14       29.83F
MOUNT WERNER   NOT AVBL
STEAMBOAT SPGS CLOUDY    34  29  82 CALM      29.88F
WALDEN         NOT AVBL
$$

COZ006>008-011-222100-
...WEST CENTRAL VALLEYS...

CITY           SKY/WX    TMP DP  RH WIND       PRES   REMARKS
GRAND JUNCTION PTSUNNY   59  29  31 NW13      29.80F
MONTROSE       FAIR      59  24  26 SW24G35   29.85F
EAGLE          LGT RAIN  48  27  43 SW31      29.86F
RIFLE          PTSUNNY   56  27  32 W20G28    29.80F
DELTA          FAIR      62  26  25 SW18G30   29.83F
NUCLA          FAIR      59  23  25 SW22G36   29.91F
$$

COZ017>023-064>068-222100-
...SOUTHWEST COLORADO...

CITY           SKY/WX    TMP DP  RH WIND       PRES   REMARKS
DURANGO        FAIR      52  31  44 SW15      29.99F
CORTEZ         FAIR      59  28  30 S15G24    29.94F
PAGOSA SPRINGS CLOUDY    47  29  49 S13G18    30.03F
TELLURIDE      FAIR      44   7  21 SW18G39   29.98F
WOLF CREEK PAS CLOUDY    25  25 100 SW22G36   30.10F FOG     WCI  10
$$

COZ009-010-012-014-032>034-037-058>063-222100-
...CENTRAL COLORADO...

CITY           SKY/WX    TMP DP  RH WIND       PRES   REMARKS
ASPEN          FAIR      47  16  29 SW10G25   29.86F
BUENA VISTA    FAIR      51   7  17 SW24G33   29.88F
COPPER MTN     NOT AVBL
BERTHOUD PASS  FAIR      25  14  63 W21G46    29.94F WCI  10
COTTONWOOD PAS FAIR      43   3  19 SW18G40   29.92F
GUNNISON       FAIR      43  22  43 S3        29.92F
KREMMLING      FAIR      50  18  27 W21G35    29.84F
LEADVILLE      FAIR      37  10  32 SW13G24   29.90F
MONARCH PASS   FAIR      28  14  54 W38       30.10F WCI  11
SALIDA         FAIR      55  14  19 W13G21    29.95F
SUNLIGHT       NOT AVBL
WILKERSON PASS FAIR      37  10  32 SW10G22   29.98F
$$

COZ069>075-222100-
...SAN LUIS VALLEY/SANGRE DE CRISTO MOUNTAINS...

CITY           SKY/WX    TMP DP  RH WIND       PRES   REMARKS
ALAMOSA        FAIR      51  24  34 SW24G35   29.97F
LA VETA PASS   PTSUNNY   41  21  45 N18G45    30.02F
SAGUACHE       FAIR      55  10  16 W23G33    29.90F
$$

COZ035-036-038>040-222100-
...NORTHERN COLORADO FRONT RANGE...

CITY           SKY/WX    TMP DP  RH WIND       PRES   REMARKS
DENVER INTL AP FAIR      54  22  28 E13G24    29.79F
DMNS CITY PARK   N/A     56  21  25 E9G25     29.78F
AURORA         MOSUNNY   54  22  28 E16       29.80F
FRONT RANGE AP MOSUNNY   55  23  28 E14G21    29.82F
ERIE MUNI ARPT FAIR      55  21  26 E7        29.80F
BOULDER MUN AP FAIR      55  25  30 E7        29.80F
CENTENNIAL     FAIR      56  22  26 NE14      29.78F
BROOMFIELD     MOSUNNY   54  21  28 E13       29.81F
FORT COLLINS   FAIR      58  24  27 SW8       29.79F
LONGMONT       FAIR      59  24  26 SE10G17   29.81F
$$

COZ041-046-047-076>085-087-088-222100-
...PIKES PEAK/PALMER DIVIDE AND SOUTHERN FOOTHILLS...

CITY           SKY/WX    TMP DP  RH WIND       PRES   REMARKS
COLO. SPRINGS  FAIR      64   6  10 SW20G33   29.81F
A. F. ACADEMY  FAIR      61   0   8 W23G35    29.79F
SCHRIEVER AFB  FAIR      63  10  12 SW25G33   29.81F
ELLICOTT       FAIR     N/A N/A N/A W21G32    29.81F
FALCON         FAIR      61   4  10 W21G32    29.84F
FORT CARSON    FAIR      64  11  12 SW20G36   29.79F
LIMON          FAIR      57  21  24 E9        29.81F
MONUMENT HILL  FAIR      57  10  15 W28G36    29.84F
TRINIDAD       FAIR      69   8   9 W43G55    29.81F
$$

COZ042>045-048>051-090-091-222100-
...NORTHEAST COLORADO...

CITY           SKY/WX    TMP DP  RH WIND       PRES   REMARKS
GREELEY ARPT   FAIR      56  24  29 N12       29.80F
AKRON          FAIR      58  18  21 N6        29.81F
BURLINGTON     FAIR      63  23  21 NE5       29.82F
WRAY           NOT AVBL
STERLING       FAIR      59  21  23 N17G23    29.79F
HOLYOKE        FAIR      66  18  15 NW15G21   29.80F
FORT MORGAN    FAIR      60  17  18 N10G17    29.82F
$$

COZ086-089-092>099-222100-
...SOUTHEAST COLORADO...

CITY           SKY/WX    TMP DP  RH WIND       PRES   REMARKS
PUEBLO         FAIR      72  13  10 W20G30    29.76F
LA JUNTA       FAIR      70  23  17 SE7       29.78F
LAMAR          FAIR      68  25  19 SE10      29.79F
SPRINGFIELD      N/A     73  18  12 N5        29.79F
$$



USA.gov is the U.S. government's official web portal to all federal, state and local government web resources and services.